| time (UTC) | temp C | wind direction | speed KPH | gust KPH | rain 1hr cm | rain 24hr cm | rain mn cm | humidity % | barometer mb |
| 20260505092100 | 18 | 212 | 8.0 | 12.9 | 0.00 | 0.00 | 0.00 | 71 | 1003.4 |
| 20260505091556 | 18 | 207 | 4.8 | 6.4 | 0.00 | 0.00 | 0.00 | 70 | 1003.3 |
| 20260505091055 | 18 | 211 | 9.7 | 12.9 | 0.00 | 0.00 | 0.00 | 70 | 1003.2 |
| 20260505090552 | 18 | 164 | 3.2 | 4.8 | 0.00 | 0.00 | 0.00 | 70 | 1003.2 |
| 20260505090050 | 18 | 202 | 6.4 | 9.7 | 0.00 | 0.00 | 0.00 | 70 | 1002.9 |
| 20260505085548 | 18 | 226 | 8.0 | 11.3 | 0.00 | 0.00 | 0.00 | 70 | 1002.9 |
| 20260505085046 | 18 | 213 | 8.0 | 12.9 | 0.00 | 0.00 | 0.00 | 70 | 1002.9 |
| 20260505084543 | 18 | 200 | 8.0 | 11.3 | 0.00 | 0.00 | 0.00 | 70 | 1002.9 |
| 20260505084042 | 18 | 209 | 9.7 | 11.3 | 0.00 | 0.00 | 0.00 | 70 | 1002.9 |
| 20260505083538 | 18 | 204 | 9.7 | 17.7 | 0.00 | 0.00 | 0.00 | 69 | 1002.9 |
| 20260505083035 | 18 | 243 | 6.4 | 11.3 | 0.00 | 0.00 | 0.00 | 69 | 1002.8 |
| 20260505082530 | 18 | 189 | 6.4 | 9.7 | 0.00 | 0.00 | 0.00 | 69 | 1003.0 |
| 20260505082027 | 18 | 209 | 6.4 | 11.3 | 0.00 | 0.00 | 0.00 | 69 | 1002.7 |
| 20260505081524 | 18 | 221 | 3.2 | 4.8 | 0.00 | 0.00 | 0.00 | 69 | 1002.8 |
| 20260505081021 | 18 | 186 | 6.4 | 6.4 | 0.00 | 0.00 | 0.00 | 69 | 1002.8 |
| 20260505080517 | 18 | 175 | 9.7 | 11.3 | 0.00 | 0.00 | 0.00 | 69 | 1002.7 |
| 20260505080014 | 18 | 212 | 8.0 | 12.9 | 0.00 | 0.00 | 0.00 | 69 | 1003.0 |
| 20260505075510 | 18 | 198 | 8.0 | 11.3 | 0.00 | 0.00 | 0.00 | 68 | 1002.7 |
| 20260505075007 | 18 | 213 | 6.4 | 11.3 | 0.00 | 0.00 | 0.00 | 68 | 1002.7 |
| 20260505074504 | 18 | 246 | 4.8 | 6.4 | 0.00 | 0.00 | 0.00 | 68 | 1003.0 |
| 20260505074001 | 18 | 204 | 6.4 | 9.7 | 0.00 | 0.00 | 0.00 | 68 | 1002.7 |
| 20260505073459 | 18 | 185 | 4.8 | 6.4 | 0.00 | 0.00 | 0.00 | 67 | 1002.8 |
| 20260505072956 | 18 | 205 | 8.0 | 12.9 | 0.00 | 0.00 | 0.00 | 67 | 1002.8 |
| 20260505072452 | 18 | 198 | 8.0 | 11.3 | 0.00 | 0.00 | 0.00 | 68 | 1002.8 |
| 20260505071948 | 18 | 187 | 8.0 | 11.3 | 0.00 | 0.00 | 0.00 | 68 | 1002.8 |
| 20260505071444 | 18 | 214 | 9.7 | 11.3 | 0.00 | 0.00 | 0.00 | 68 | 1002.8 |
| 20260505070943 | 18 | 192 | 11.3 | 14.5 | 0.00 | 0.00 | 0.00 | 67 | 1002.7 |
| 20260505070439 | 18 | 201 | 9.7 | 11.3 | 0.00 | 0.00 | 0.00 | 67 | 1002.7 |
| 20260505065935 | 18 | 207 | 8.0 | 11.3 | 0.00 | 0.00 | 0.00 | 67 | 1002.9 |
| 20260505065431 | 18 | 189 | 12.9 | 16.1 | 0.00 | 0.00 | 0.00 | 67 | 1003.0 |
| 20260505064928 | 18 | 199 | 11.3 | 16.1 | 0.00 | 0.00 | 0.00 | 67 | 1002.9 |
| 20260505064425 | 18 | 198 | 8.0 | 12.9 | 0.00 | 0.00 | 0.00 | 67 | 1003.1 |
| 20260505063924 | 18 | 188 | 9.7 | 12.9 | 0.00 | 0.00 | 0.00 | 67 | 1003.3 |
| 20260505063420 | 18 | 219 | 9.7 | 11.3 | 0.00 | 0.00 | 0.00 | 67 | 1003.7 |
| 20260505062916 | 18 | 199 | 6.4 | 9.7 | 0.00 | 0.00 | 0.00 | 66 | 1003.6 |
| 20260505062414 | 18 | 203 | 8.0 | 11.3 | 0.00 | 0.00 | 0.00 | 67 | 1004.0 |
| 20260505061910 | 18 | 237 | 11.3 | 12.9 | 0.00 | 0.00 | 0.00 | 66 | 1003.9 |
| 20260505061409 | 18 | 199 | 6.4 | 9.7 | 0.00 | 0.00 | 0.00 | 67 | 1003.7 |
| 20260505060906 | 18 | 207 | 6.4 | 9.7 | 0.00 | 0.00 | 0.00 | 66 | 1003.8 |
| 20260505060402 | 18 | 234 | 6.4 | 11.3 | 0.00 | 0.00 | 0.00 | 66 | 1004.0 |
| 20260505055858 | 18 | 196 | 9.7 | 11.3 | 0.00 | 0.00 | 0.00 | 65 | 1004.0 |
| 20260505055355 | 18 | 171 | 11.3 | 14.5 | 0.00 | 0.00 | 0.00 | 66 | 1004.0 |
| 20260505054852 | 18 | 216 | 8.0 | 9.7 | 0.00 | 0.00 | 0.00 | 65 | 1003.8 |
| 20260505054349 | 18 | 198 | 12.9 | 14.5 | 0.00 | 0.00 | 0.00 | 66 | 1003.9 |
| 20260505053847 | 18 | 187 | 6.4 | 9.7 | 0.00 | 0.00 | 0.00 | 66 | 1003.9 |
| 20260505053344 | 18 | 187 | 11.3 | 14.5 | 0.00 | 0.00 | 0.00 | 65 | 1004.1 |
| 20260505052841 | 18 | 226 | 8.0 | 11.3 | 0.00 | 0.00 | 0.00 | 66 | 1004.1 |
| 20260505052337 | 18 | 182 | 9.7 | 12.9 | 0.00 | 0.00 | 0.00 | 65 | 1004.0 |
| 20260505051835 | 18 | 202 | 8.0 | 9.7 | 0.00 | 0.00 | 0.00 | 65 | 1004.1 |
| 20260505051332 | 18 | 201 | 12.9 | 16.1 | 0.00 | 0.00 | 0.00 | 65 | 1004.3 |
| 20260505050830 | 18 | 203 | 6.4 | 6.4 | 0.00 | 0.00 | 0.00 | 65 | 1004.2 |
| 20260505050329 | 18 | 195 | 8.0 | 11.3 | 0.00 | 0.00 | 0.00 | 64 | 1004.1 |
| 20260505041758 | 19 | 221 | 4.8 | 4.8 | 0.00 | 0.00 | 0.00 | 63 | 1004.4 |
| 20260505041255 | 20 | 211 | 6.4 | 6.4 | 0.00 | 0.00 | 0.00 | 62 | 1004.2 |
| 20260505040753 | 19 | 242 | 8.0 | 11.3 | 0.00 | 0.00 | 0.00 | 62 | 1004.3 |
| 20260505040250 | 20 | 198 | 4.8 | 4.8 | 0.00 | 0.00 | 0.00 | 62 | 1004.2 |
| 20260505035746 | 20 | 190 | 8.0 | 9.7 | 0.00 | 0.00 | 0.00 | 62 | 1004.5 |
| 20260505035242 | 19 | 198 | 6.4 | 6.4 | 0.00 | 0.00 | 0.00 | 62 | 1004.5 |
| 20260505034739 | 20 | 228 | 8.0 | 11.3 | 0.00 | 0.00 | 0.00 | 62 | 1004.4 |
| 20260505034236 | 19 | 200 | 9.7 | 11.3 | 0.00 | 0.00 | 0.00 | 62 | 1004.4 |
| 20260505033733 | 20 | 208 | 4.8 | 6.4 | 0.00 | 0.00 | 0.00 | 62 | 1004.3 |
| 20260505033231 | 20 | 201 | 4.8 | 4.8 | 0.00 | 0.00 | 0.00 | 61 | 1004.5 |
| 20260505032729 | 20 | 233 | 3.2 | 4.8 | 0.00 | 0.00 | 0.00 | 60 | 1004.3 |
| 20260505032224 | 20 | 196 | 6.4 | 6.4 | 0.00 | 0.00 | 0.00 | 59 | 1004.2 |
| 20260505031722 | 20 | 216 | 6.4 | 6.4 | 0.00 | 0.00 | 0.00 | 59 | 1004.0 |
| 20260505031218 | 20 | 205 | 3.2 | 4.8 | 0.00 | 0.00 | 0.00 | 59 | 1004.1 |
| 20260505030715 | 20 | 199 | 4.8 | 4.8 | 0.00 | 0.00 | 0.00 | 59 | 1004.2 |
| 20260505030211 | 21 | 189 | 6.4 | 6.4 | 0.00 | 0.00 | 0.00 | 58 | 1004.2 |
| 20260505025707 | 21 | 178 | 9.7 | 12.9 | 0.00 | 0.00 | 0.00 | 57 | 1003.8 |
| 20260505025206 | 21 | 202 | 8.0 | 9.7 | 0.00 | 0.00 | 0.00 | 57 | 1003.8 |
| 20260505024703 | 21 | 199 | 8.0 | 9.7 | 0.00 | 0.00 | 0.00 | 57 | 1003.7 |
| 20260505024200 | 21 | 207 | 6.4 | 6.4 | 0.00 | 0.00 | 0.00 | 57 | 1003.8 |
| 20260505023657 | 21 | 223 | 3.2 | 4.8 | 0.00 | 0.00 | 0.00 | 56 | 1003.8 |
| 20260505023155 | 21 | 174 | 4.8 | 4.8 | 0.00 | 0.00 | 0.00 | 56 | 1003.7 |
| 20260505022652 | 21 | 233 | 6.4 | 6.4 | 0.00 | 0.00 | 0.00 | 56 | 1003.5 |
| 20260505022149 | 21 | 216 | 9.7 | 9.7 | 0.00 | 0.00 | 0.00 | 56 | 1003.6 |
| 20260505021645 | 21 | 182 | 3.2 | 4.8 | 0.00 | 0.00 | 0.00 | 56 | 1003.3 |
| 20260505021143 | 21 | 199 | 8.0 | 9.7 | 0.00 | 0.00 | 0.00 | 56 | 1003.6 |
| 20260505020638 | 21 | 189 | 4.8 | 6.4 | 0.00 | 0.00 | 0.00 | 55 | 1003.4 |
| 20260505020134 | 21 | 196 | 6.4 | 6.4 | 0.00 | 0.00 | 0.00 | 55 | 1003.5 |
| 20260505015632 | 21 | 209 | 8.0 | 9.7 | 0.00 | 0.00 | 0.00 | 55 | 1003.4 |
| 20260505015128 | 21 | 205 | 6.4 | 6.4 | 0.00 | 0.00 | 0.00 | 55 | 1003.2 |
| 20260505014625 | 21 | 203 | 3.2 | 4.8 | 0.00 | 0.00 | 0.00 | 56 | 1003.3 |
| 20260505014122 | 21 | 193 | 6.4 | 6.4 | 0.00 | 0.00 | 0.00 | 54 | 1003.3 |
| 20260505013619 | 22 | 177 | 6.4 | 6.4 | 0.00 | 0.00 | 0.00 | 54 | 1003.4 |
| 20260505013117 | 22 | 224 | 3.2 | 3.2 | 0.00 | 0.00 | 0.00 | 54 | 1003.3 |
| 20260505012615 | 22 | 235 | 4.8 | 6.4 | 0.00 | 0.00 | 0.00 | 53 | 1003.2 |
| 20260505012111 | 22 | 211 | 4.8 | 4.8 | 0.00 | 0.00 | 0.00 | 53 | 1003.1 |
| 20260505011607 | 22 | 199 | 9.7 | 11.3 | 0.00 | 0.00 | 0.00 | 52 | 1003.0 |
| 20260505011104 | 22 | 201 | 9.7 | 12.9 | 0.00 | 0.00 | 0.00 | 52 | 1003.0 |
| 20260505010559 | 22 | 239 | 11.3 | 14.5 | 0.00 | 0.00 | 0.00 | 51 | 1002.8 |
| 20260505010056 | 22 | 205 | 8.0 | 11.3 | 0.00 | 0.00 | 0.00 | 51 | 1002.7 |
| 20260505005552 | 22 | 198 | 6.4 | 9.7 | 0.00 | 0.00 | 0.00 | 51 | 1002.8 |
| 20260505005050 | 22 | 198 | 6.4 | 6.4 | 0.00 | 0.00 | 0.00 | 51 | 1003.0 |
| 20260505004547 | 23 | 204 | 9.7 | 11.3 | 0.00 | 0.00 | 0.00 | 50 | 1002.7 |
| 20260505004043 | 23 | 203 | 8.0 | 9.7 | 0.00 | 0.00 | 0.00 | 51 | 1002.8 |
| 20260505003541 | 23 | 204 | 6.4 | 6.4 | 0.00 | 0.00 | 0.00 | 50 | 1003.1 |
| 20260505003038 | 23 | 219 | 6.4 | 9.7 | 0.00 | 0.00 | 0.00 | 49 | 1002.9 |
| 20260505002537 | 23 | 215 | 3.2 | 3.2 | 0.00 | 0.00 | 0.00 | 50 | 1002.9 |
| 20260505002032 | 23 | 182 | 4.8 | 9.7 | 0.00 | 0.00 | 0.00 | 49 | 1003.0 |
| 20260505001529 | 24 | 196 | 6.4 | 9.7 | 0.00 | 0.00 | 0.00 | 48 | 1002.9 |
| 20260505001026 | 24 | 206 | 6.4 | 6.4 | 0.00 | 0.00 | 0.00 | 48 | 1002.8 |
| 20260505000523 | 24 | 181 | 3.2 | 4.8 | 0.00 | 0.00 | 0.00 | 47 | 1003.1 |
| 20260505000021 | 24 | 210 | 8.0 | 12.9 | 0.00 | 0.00 | 0.00 | 46 | 1003.0 |
| 20260504235517 | 24 | 173 | 20.9 | 25.7 | 0.00 | 0.00 | 0.00 | 46 | 1003.0 |
| 20260504235014 | 25 | 237 | 3.2 | 4.8 | 0.00 | 0.00 | 0.00 | 47 | 1002.9 |
| 20260504234511 | 25 | 197 | 16.1 | 17.7 | 0.00 | 0.00 | 0.00 | 47 | 1003.0 |
| 20260504234008 | 25 | 201 | 12.9 | 17.7 | 0.00 | 0.00 | 0.00 | 45 | 1003.1 |
| 20260504233503 | 25 | 283 | 6.4 | 11.3 | 0.00 | 0.00 | 0.00 | 45 | 1002.9 |
| 20260504233000 | 25 | 212 | 9.7 | 12.9 | 0.00 | 0.00 | 0.00 | 46 | 1003.1 |
| 20260504232457 | 25 | 215 | 14.5 | 17.7 | 0.00 | 0.00 | 0.00 | 45 | 1003.3 |
| 20260504231955 | 25 | 184 | 9.7 | 11.3 | 0.00 | 0.00 | 0.00 | 45 | 1003.4 |
| 20260504231451 | 25 | 248 | 11.3 | 14.5 | 0.00 | 0.00 | 0.00 | 44 | 1003.2 |
| 20260504230947 | 25 | 227 | 12.9 | 17.7 | 0.00 | 0.00 | 0.00 | 45 | 1003.3 |
| 20260504230444 | 25 | 198 | 8.0 | 12.9 | 0.00 | 0.00 | 0.00 | 44 | 1003.3 |
| 20260504225943 | 25 | 347 | 16.1 | 22.5 | 0.00 | 0.00 | 0.00 | 44 | 1003.3 |
| 20260504225439 | 25 | 199 | 14.5 | 16.1 | 0.00 | 0.00 | 0.00 | 44 | 1003.3 |
| 20260504224937 | 25 | 223 | 19.3 | 24.1 | 0.00 | 0.00 | 0.00 | 43 | 1003.3 |
| 20260504224433 | 25 | 188 | 8.0 | 11.3 | 0.00 | 0.00 | 0.00 | 44 | 1003.4 |
| 20260504223930 | 26 | 217 | 4.8 | 9.7 | 0.00 | 0.00 | 0.00 | 44 | 1003.6 |
| 20260504223426 | 26 | 173 | 12.9 | 16.1 | 0.00 | 0.00 | 0.00 | 43 | 1003.7 |
| 20260504222922 | 26 | 213 | 8.0 | 14.5 | 0.00 | 0.00 | 0.00 | 43 | 1003.7 |
| 20260504222420 | 26 | 233 | 11.3 | 16.1 | 0.00 | 0.00 | 0.00 | 44 | 1003.4 |
| 20260504221917 | 26 | 199 | 8.0 | 14.5 | 0.00 | 0.00 | 0.00 | 42 | 1003.6 |
| 20260504221414 | 26 | 191 | 6.4 | 9.7 | 0.00 | 0.00 | 0.00 | 43 | 1003.5 |
| 20260504220911 | 26 | 302 | 11.3 | 16.1 | 0.00 | 0.00 | 0.00 | 42 | 1003.5 |
| 20260504220408 | 26 | 210 | 12.9 | 14.5 | 0.00 | 0.00 | 0.00 | 43 | 1003.5 |
| 20260504215905 | 26 | 193 | 9.7 | 14.5 | 0.00 | 0.00 | 0.00 | 42 | 1003.5 |
| 20260504215401 | 26 | 219 | 14.5 | 22.5 | 0.00 | 0.00 | 0.00 | 41 | 1003.4 |
| 20260504214857 | 26 | 190 | 9.7 | 12.9 | 0.00 | 0.00 | 0.00 | 42 | 1003.5 |
| 20260504214354 | 26 | 280 | 11.3 | 14.5 | 0.00 | 0.00 | 0.00 | 42 | 1003.5 |
| 20260504213851 | 26 | 214 | 14.5 | 20.9 | 0.00 | 0.00 | 0.00 | 41 | 1003.5 |
| 20260504213347 | 26 | 188 | 8.0 | 14.5 | 0.00 | 0.00 | 0.00 | 41 | 1003.3 |
| 20260504212844 | 26 | 283 | 8.0 | 9.7 | 0.00 | 0.00 | 0.00 | 41 | 1003.5 |
| 20260504212340 | 26 | 265 | 12.9 | 17.7 | 0.00 | 0.00 | 0.00 | 41 | 1003.6 |
| 20260504211839 | 26 | 171 | 16.1 | 24.1 | 0.00 | 0.00 | 0.00 | 41 | 1003.2 |
| 20260504211334 | 26 | 237 | 17.7 | 20.9 | 0.00 | 0.00 | 0.00 | 41 | 1003.3 |
| 20260504210832 | 26 | 200 | 19.3 | 24.1 | 0.00 | 0.00 | 0.00 | 41 | 1003.4 |
| 20260504210329 | 26 | 214 | 9.7 | 12.9 | 0.00 | 0.00 | 0.00 | 41 | 1003.3 |
| 20260504205826 | 26 | 204 | 12.9 | 20.9 | 0.00 | 0.00 | 0.00 | 41 | 1003.4 |
| 20260504205323 | 26 | 207 | 19.3 | 30.6 | 0.00 | 0.00 | 0.00 | 43 | 1003.2 |
| 20260504204821 | 26 | 228 | 14.5 | 17.7 | 0.00 | 0.00 | 0.00 | 43 | 1003.3 |
| 20260504204320 | 26 | 209 | 11.3 | 17.7 | 0.00 | 0.00 | 0.00 | 42 | 1003.3 |
| 20260504203819 | 26 | 185 | 20.9 | 29.0 | 0.00 | 0.00 | 0.00 | 43 | 1003.5 |
| 20260504203315 | 26 | 210 | 16.1 | 22.5 | 0.00 | 0.00 | 0.00 | 43 | 1003.7 |
| 20260504202811 | 26 | 245 | 12.9 | 16.1 | 0.00 | 0.00 | 0.00 | 42 | 1003.9 |
| 20260504202309 | 26 | 199 | 22.5 | 30.6 | 0.00 | 0.00 | 0.00 | 43 | 1003.8 |
| 20260504201805 | 26 | 208 | 3.2 | 4.8 | 0.00 | 0.00 | 0.00 | 43 | 1003.9 |
| 20260504201303 | 26 | 267 | 11.3 | 17.7 | 0.00 | 0.00 | 0.00 | 42 | 1003.8 |
| 20260504200800 | 26 | 310 | 17.7 | 22.5 | 0.00 | 0.00 | 0.00 | 43 | 1004.1 |
| 20260504200256 | 26 | 208 | 17.7 | 20.9 | 0.00 | 0.00 | 0.00 | 42 | 1003.8 |
| 20260504195752 | 26 | 188 | 24.1 | 27.4 | 0.00 | 0.00 | 0.00 | 42 | 1004.0 |
| 20260504195248 | 26 | 223 | 17.7 | 24.1 | 0.00 | 0.00 | 0.00 | 41 | 1004.1 |
| 20260504194745 | 26 | 224 | 16.1 | 24.1 | 0.00 | 0.00 | 0.00 | 42 | 1004.1 |
| 20260504194242 | 26 | 195 | 14.5 | 29.0 | 0.00 | 0.00 | 0.00 | 43 | 1004.2 |
| 20260504193738 | 26 | 184 | 12.9 | 14.5 | 0.00 | 0.00 | 0.00 | 43 | 1004.3 |
| 20260504193235 | 26 | 184 | 12.9 | 16.1 | 0.00 | 0.00 | 0.00 | 40 | 1004.3 |
| 20260504192734 | 26 | 227 | 4.8 | 6.4 | 0.00 | 0.00 | 0.00 | 42 | 1004.3 |
| 20260504192231 | 26 | 179 | 17.7 | 20.9 | 0.00 | 0.00 | 0.00 | 41 | 1004.3 |
| 20260504191730 | 26 | 216 | 8.0 | 12.9 | 0.00 | 0.00 | 0.00 | 43 | 1004.5 |
| 20260504191226 | 26 | 245 | 19.3 | 38.6 | 0.00 | 0.00 | 0.00 | 43 | 1004.4 |
| 20260504190721 | 26 | 268 | 9.7 | 12.9 | 0.00 | 0.00 | 0.00 | 44 | 1004.6 |
| 20260504190218 | 26 | 196 | 3.2 | 9.7 | 0.00 | 0.00 | 0.00 | 44 | 1004.8 |
| 20260504185715 | 26 | 217 | 17.7 | 24.1 | 0.00 | 0.00 | 0.00 | 43 | 1004.5 |
| 20260504185212 | 26 | 204 | 11.3 | 17.7 | 0.00 | 0.00 | 0.00 | 45 | 1004.5 |
| 20260504184708 | 26 | 201 | 14.5 | 17.7 | 0.00 | 0.00 | 0.00 | 47 | 1004.6 |
| 20260504184204 | 26 | 213 | 20.9 | 24.1 | 0.00 | 0.00 | 0.00 | 45 | 1004.7 |
| 20260504183700 | 26 | 181 | 4.8 | 9.7 | 0.00 | 0.00 | 0.00 | 44 | 1004.8 |
| 20260504183157 | 26 | 195 | 8.0 | 14.5 | 0.00 | 0.00 | 0.00 | 45 | 1004.8 |
| 20260504182655 | 26 | 238 | 12.9 | 17.7 | 0.00 | 0.00 | 0.00 | 45 | 1004.8 |
| 20260504182152 | 26 | 246 | 14.5 | 16.1 | 0.00 | 0.00 | 0.00 | 46 | 1004.9 |
| 20260504181650 | 26 | 196 | 22.5 | 29.0 | 0.00 | 0.00 | 0.00 | 43 | 1005.1 |
| 20260504181147 | 26 | 201 | 12.9 | 16.1 | 0.00 | 0.00 | 0.00 | 46 | 1005.3 |
| 20260504180646 | 26 | 197 | 14.5 | 17.7 | 0.00 | 0.00 | 0.00 | 44 | 1005.0 |
| 20260504180144 | 26 | 296 | 11.3 | 17.7 | 0.00 | 0.00 | 0.00 | 45 | 1005.4 |
| 20260504175641 | 26 | 189 | 9.7 | 20.9 | 0.00 | 0.00 | 0.00 | 46 | 1005.3 |
| 20260504175137 | 26 | 254 | 6.4 | 11.3 | 0.00 | 0.00 | 0.00 | 46 | 1005.3 |
| 20260504174636 | 25 | 235 | 14.5 | 27.4 | 0.00 | 0.00 | 0.00 | 47 | 1005.4 |
| 20260504174132 | 25 | 273 | 14.5 | 16.1 | 0.00 | 0.00 | 0.00 | 45 | 1005.6 |
| 20260504173629 | 25 | 127 | 11.3 | 16.1 | 0.00 | 0.00 | 0.00 | 45 | 1005.5 |
| 20260504173127 | 25 | 240 | 14.5 | 22.5 | 0.00 | 0.00 | 0.00 | 48 | 1005.7 |
| 20260504172623 | 26 | 215 | 14.5 | 24.1 | 0.00 | 0.00 | 0.00 | 47 | 1005.9 |
| 20260504172120 | 26 | 289 | 11.3 | 14.5 | 0.00 | 0.00 | 0.00 | 47 | 1005.6 |
| 20260504171616 | 25 | 173 | 4.8 | 6.4 | 0.00 | 0.00 | 0.00 | 49 | 1005.9 |
| 20260504171114 | 25 | 294 | 4.8 | 9.7 | 0.00 | 0.00 | 0.00 | 49 | 1005.8 |
| 20260504170609 | 25 | 229 | 9.7 | 12.9 | 0.00 | 0.00 | 0.00 | 47 | 1006.1 |
| 20260504170107 | 25 | 147 | 11.3 | 20.9 | 0.00 | 0.00 | 0.00 | 48 | 1005.9 |
| 20260504150953 | 22 | 201 | 6.4 | 12.9 | 0.00 | 0.00 | 0.00 | 62 | 1007.2 |
| 20260504150450 | 22 | 172 | 9.7 | 12.9 | 0.00 | 0.00 | 0.00 | 61 | 1007.2 |
| 20260504140916 | 20 | 221 | 3.2 | 3.2 | 0.00 | 0.00 | 0.00 | 69 | 1007.4 |
| 20260504140412 | 20 | 202 | 3.2 | 4.8 | 0.00 | 0.00 | 0.00 | 71 | 1007.3 |
| 20260504130337 | 17 | 193 | 9.7 | 12.9 | 0.00 | 0.00 | 0.00 | 76 | 1007.3 |
| 20260504120301 | 16 | 190 | 9.7 | 11.3 | 0.00 | 0.00 | 0.00 | 74 | 1007.4 |
| 20260504110224 | 16 | 206 | 3.2 | 3.2 | 0.00 | 0.00 | 0.00 | 73 | 1006.7 |
| 20260504100148 | 16 | 234 | 3.2 | 3.2 | 0.00 | 0.00 | 0.00 | 69 | 1006.5 |